Weather History for KHNZ - December, 2012

Change the Weather History Date:

Thursday, December 13, 2012

  Actual Average (KTDF) Record (KTDF)
Temperature  
Mean Temperature 41 °F -  
Max Temperature 50 °F 52 °F 73 °F (2007)
Min Temperature 32 °F 31 °F 4 °F (1962)
Degree Days  
Heating Degree Days 24    
Moisture  
Dew Point 31 °F    
Average Humidity 70    
Maximum Humidity 91    
Minimum Humidity 49    
Precipitation  
Precipitation 0.04 in - - ()
Sea Level Pressure  
Sea Level Pressure 30.35 in    
Wind  
Wind Speed 7 mph (North)    
Max Wind Speed 12 mph    
Max Gust Speed 17 mph    
Visibility 10 miles    
Events Rain    
Averages and records for this station are not official NWS values.
T = Trace of Precipitation, MM = Missing Value Source: NWS Daily Summary

Daily Weather History Graph

Daily Weather History Graph

Search for Another Location

Airport or City:

Trip Planner

Search our weather history database for the weather conditions in past years. The results will help you decide how hot, cold, wet, or windy it might be!

Date:

Astronomy

Dec. 13, 2012 Rise Set
Actual Time 7:17 AM EST 4:59 PM EST
Civil Twilight 6:48 AM EST 5:28 PM EST
Nautical Twilight 6:16 AM EST 6:00 PM EST
Astronomical Twilight 5:45 AM EST 6:32 PM EST
Moon 7:24 AM EST (12/13) 5:39 PM EST (12/13)
Length of Visible Light 10h 39m
Length of Day
9h 42m
New Moon, 0% of the Moon is Illuminated
Dec 13
New Moon
Dec 20
First Quarter
Dec 28
Full
Jan 4
Last Quarter
Jan 11
New

Hourly Weather History & Observations

Time (EST) Temp. Windchill Dew Point Humidity Pressure Visibility Wind Dir Wind Speed Gust Speed Precip Events Conditions
12:15 AM 39.7 °F 34.3 °F 29.3 °F 66% 30.31 in 10.0 mi NNE 8.1 mph - N/A Rain Light Rain
12:35 AM 39.7 °F 33.7 °F 29.1 °F 66% 30.31 in 10.0 mi NNE 9.2 mph - N/A Rain Light Rain
12:55 AM 39.2 °F 32.0 °F 30.2 °F 70% 30.30 in 10.0 mi NNE 11.5 mph 16.1 mph N/A Rain Light Rain
1:15 AM 39.6 °F 34.7 °F 29.1 °F 66% 30.31 in 10.0 mi North 6.9 mph - N/A   Light Drizzle
1:35 AM 39.4 °F 33.8 °F 30.0 °F 69% 30.31 in 10.0 mi North 8.1 mph - N/A Rain Light Rain
1:55 AM 38.8 °F 33.8 °F 30.9 °F 73% 30.32 in 10.0 mi North 6.9 mph - N/A   Light Drizzle
2:15 AM 38.7 °F 32.9 °F 30.9 °F 74% 30.33 in 10.0 mi North 8.1 mph - N/A Rain Light Rain
2:35 AM 38.3 °F 33.2 °F 32.0 °F 78% 30.34 in 7.0 mi North 6.9 mph - 0.01 in Rain Rain
2:55 AM 37.4 °F 32.8 °F 32.4 °F 82% 30.34 in 7.0 mi North 5.8 mph - 0.02 in Rain Light Rain
3:15 AM 37.0 °F 31.0 °F 33.1 °F 86% 30.32 in 7.0 mi North 8.1 mph - N/A Rain Light Rain
3:35 AM 36.9 °F 31.4 °F 33.1 °F 86% 30.33 in 10.0 mi North 6.9 mph - 0.01 in Rain Rain
3:55 AM 36.7 °F 32.9 °F 33.4 °F 88% 30.32 in 7.0 mi North 4.6 mph - 0.02 in Rain Light Rain
4:15 AM 36.7 °F 31.2 °F 33.6 °F 89% 30.32 in 10.0 mi NNE 6.9 mph - N/A   Light Drizzle
4:35 AM 36.9 °F 32.2 °F 32.9 °F 86% 30.32 in 10.0 mi North 5.8 mph - N/A Rain Light Rain
4:55 AM 36.9 °F 31.4 °F 32.7 °F 85% 30.32 in 10.0 mi North 6.9 mph - N/A   Light Drizzle
5:15 AM 36.7 °F 32.0 °F 32.2 °F 84% 30.32 in 10.0 mi North 5.8 mph - N/A   Overcast
5:35 AM 36.7 °F 31.2 °F 32.0 °F 83% 30.32 in 10.0 mi North 6.9 mph - N/A   Overcast
5:55 AM 36.7 °F 31.2 °F 31.8 °F 83% 30.32 in 10.0 mi NNE 6.9 mph - N/A   Overcast
6:15 AM 36.7 °F 29.4 °F 31.3 °F 81% 30.33 in 10.0 mi North 10.4 mph - N/A   Overcast
6:35 AM 36.9 °F 31.4 °F 31.1 °F 80% 30.34 in 10.0 mi North 6.9 mph - N/A   Overcast
6:55 AM 37.0 °F 31.0 °F 30.6 °F 77% 30.35 in 10.0 mi North 8.1 mph - N/A   Overcast
7:15 AM 37.4 °F 30.8 °F 30.0 °F 75% 30.35 in 10.0 mi NNE 9.2 mph - N/A   Overcast
7:35 AM 37.4 °F 31.4 °F 29.7 °F 74% 30.36 in 10.0 mi North 8.1 mph 17.3 mph N/A   Overcast
7:55 AM 37.4 °F 31.4 °F 29.7 °F 74% 30.36 in 10.0 mi North 8.1 mph - N/A   Overcast
8:15 AM 37.8 °F 32.5 °F 29.8 °F 73% 30.37 in 10.0 mi North 6.9 mph - N/A   Overcast
8:35 AM 37.9 °F 32.7 °F 29.8 °F 73% 30.38 in 10.0 mi North 6.9 mph - N/A   Overcast
8:55 AM 38.5 °F 32.7 °F 29.7 °F 71% 30.38 in 10.0 mi North 8.1 mph - N/A   Overcast
9:15 AM 38.7 °F 34.3 °F 28.9 °F 68% 30.39 in 10.0 mi North 5.8 mph - N/A   Overcast
9:35 AM 39.2 °F 34.2 °F 28.8 °F 66% 30.40 in 10.0 mi North 6.9 mph - N/A   Overcast
9:55 AM 40.1 °F 34.1 °F 28.6 °F 63% 30.40 in 10.0 mi North 9.2 mph - N/A   Overcast
10:15 AM 39.6 °F 33.0 °F 28.4 °F 64% 30.40 in 10.0 mi NNW 10.4 mph - N/A   Overcast
10:35 AM 39.4 °F 33.2 °F 28.8 °F 66% 30.40 in 10.0 mi North 9.2 mph - N/A   Overcast
10:55 AM 40.1 °F 34.7 °F 29.1 °F 65% 30.40 in 10.0 mi North 8.1 mph - N/A   Overcast
11:15 AM 40.5 °F 35.1 °F 29.3 °F 64% 30.40 in 10.0 mi North 8.1 mph - N/A   Overcast
11:35 AM 41.7 °F 37.3 °F 29.7 °F 62% 30.39 in 10.0 mi North 6.9 mph - N/A   Mostly Cloudy
11:55 AM 43.7 °F 39.1 °F 30.4 °F 59% 30.37 in 10.0 mi NNE 8.1 mph - N/A   Scattered Clouds
12:15 PM 45.5 °F 41.3 °F 31.3 °F 58% 30.37 in 10.0 mi North 8.1 mph - N/A   Clear
12:35 PM 47.3 °F - 32.2 °F 56% 30.37 in 10.0 mi North 6.9 mph - N/A   Clear
12:55 PM 47.7 °F - 32.2 °F 55% 30.35 in 10.0 mi North 8.1 mph - N/A   Clear
1:15 PM 48.4 °F - 32.2 °F 54% 30.35 in 10.0 mi North 5.8 mph - N/A   Clear
1:35 PM 49.1 °F - 32.4 °F 53% 30.34 in 10.0 mi North 8.1 mph - N/A   Clear
1:55 PM 49.3 °F - 32.5 °F 53% 30.34 in 10.0 mi North 4.6 mph - N/A   Clear
2:15 PM 49.6 °F - 32.0 °F 51% 30.34 in 10.0 mi NNE 4.6 mph - N/A   Clear
2:35 PM 50.0 °F - 32.4 °F 51% 30.34 in 10.0 mi North 8.1 mph - N/A   Clear
2:55 PM 50.0 °F - 32.0 °F 50% 30.34 in 10.0 mi North 8.1 mph - N/A   Clear
3:15 PM 50.0 °F - 31.6 °F 49% 30.34 in 10.0 mi North 6.9 mph - N/A   Clear
3:35 PM 50.0 °F - 31.3 °F 49% 30.34 in 10.0 mi NNW 6.9 mph - N/A   Clear
3:55 PM 49.3 °F - 31.1 °F 50% 30.34 in 10.0 mi North 5.8 mph - N/A   Clear
4:15 PM 48.6 °F - 31.1 °F 51% 30.33 in 10.0 mi NNE 6.9 mph - N/A   Clear
4:35 PM 48.0 °F - 30.6 °F 51% 30.33 in 10.0 mi NNE 5.8 mph - N/A   Clear
4:55 PM 46.0 °F 44.8 °F 30.4 °F 54% 30.33 in 10.0 mi NE 3.5 mph - N/A   Clear
5:35 PM 43.3 °F 41.7 °F 31.8 °F 64% 30.34 in 10.0 mi North 3.5 mph - N/A   Clear
8:15 PM 39.4 °F - 29.3 °F 67% 30.36 in 10.0 mi Calm Calm - N/A   Clear
8:35 PM 38.1 °F - 29.5 °F 71% 30.36 in 10.0 mi Calm Calm - N/A   Clear
8:55 PM 34.2 °F 31.2 °F 29.7 °F 84% 30.36 in 10.0 mi NNW 3.5 mph - N/A   Clear
9:15 PM 37.2 °F 34.7 °F 29.5 °F 74% 30.36 in 10.0 mi NNW 3.5 mph - N/A   Clear
9:35 PM 35.8 °F 33.0 °F 29.3 °F 77% 30.37 in 10.0 mi NNW 3.5 mph - N/A   Clear
9:55 PM 34.3 °F - 29.3 °F 82% 30.37 in 10.0 mi Calm Calm - N/A   Clear
10:15 PM 35.6 °F - 30.0 °F 80% 30.36 in 10.0 mi Calm Calm - N/A   Clear
10:35 PM 35.6 °F - 28.9 °F 77% 30.35 in 10.0 mi Calm Calm - N/A   Clear
10:55 PM 34.0 °F - 31.6 °F 91% 30.35 in 10.0 mi Calm Calm - N/A   Clear
11:15 PM 33.4 °F - 29.7 °F 86% 30.35 in 10.0 mi Calm Calm - N/A   Clear
11:35 PM 32.2 °F - 29.3 °F 89% 30.35 in 10.0 mi Calm Calm - N/A   Clear
11:55 PM 32.0 °F - 29.3 °F 90% 30.35 in 10.0 mi Calm Calm - N/A   Clear